weather.gov     
National Weather Service

Regional Weather Roundup
NWS Homepage
This page is being discontinued on March 12, 2014.
The same data is available at this site. Please update your bookmarks.
Thank you, and we apologize for the inconvenience.
Please send an email to SR-SRH.Webmaster@noaa.gov with any concerns.


Current Version
Previous Version:    01  02  03  04  05  06  07  08  09  10  11  12  13  14  15  16  17  18  19  20  21  22  23  24  25  26  27  28  29  30  
   31  32  33  34  35  36  37  38  39  40  41  42  43  44  45  46  47  48  49  50  51  52  53  
[Printable]
660
ASUS41 KGYX 311310
RWRGYX
WEATHER ROUNDUP FOR MAINE AND NEW HAMPSHIRE
NATIONAL WEATHER SERVICE GRAY ME
900 AM EDT THU JUL 31 2014

MEZ002-005-006-010-012-015-018-020-021-024-026-027-029-311400-
MAINE

CITY           SKY/WX    TMP DP  RH WIND       PRES   REMARKS
PORTLAND       CLOUDY    62  61  96 E6        30.11S FOG
SANFORD        SUNNY     66  57  72 CALM      30.11R
BAR HARBOR     PTSUNNY   63  61  94 E5        30.11F
WISCASSET      FOG       62  61  96 VRB3      30.12S VSB 1
ROCKLAND       CLOUDY    57  57 100 SE7       30.11S VSB 1/4
FRYEBURG       PTSUNNY   63  57  81 VRB3      30.10S
LEWISTONAUBURN CLOUDY    61  57  88 S5        30.11S
AUGUSTA        CLOUDY    62  59  90 S5        30.11S
WATERVILLE     CLOUDY    61  57  88 CALM      30.07S
BANGOR         MOSUNNY   66  59  78 S6        30.11R
GREENVILLE       N/A    N/A N/A N/A MISG      30.09R
MILLINOCKET    CLOUDY    63  58  83 CALM      30.11R
HOULTON        CLOUDY    60  58  92 SW8       30.09R
PRESQUE ISLE   CLOUDY    64  57  77 S5        30.07F
FRENCHVILLE    CLOUDY    60  58  92 SE6       30.06R
CARIBOU        CLOUDY    61  59  93 SE7       30.06S
$$

NHZ002-005-008-009-011-012-014-311400-
NEW HAMPSHIRE

CITY           SKY/WX    TMP DP  RH WIND       PRES   REMARKS
PORTSMOUTH     MOSUNNY   67  59  74 VRB2      30.09S
ROCHESTER      SUNNY     66  58  75 S3        30.10R
NASHUA         SUNNY     67  58  72 CALM      30.10S
MANCHESTER     PTSUNNY   66  58  75 CALM      30.08S
CONCORD        MOSUNNY   61  58  90 CALM      30.10S
LACONIA          N/A     64  57  77 CALM      30.09S
PLYMOUTH       CLOUDY    55  55  97 CALM      30.10S
BERLIN         CLOUDY    56  53  90 CALM      30.10S
WHITEFIELD     CLOUDY    56  53  90 CALM      30.09S
JAFFREY        MOSUNNY   65  57  75 SW6       30.12R
LEBANON        CLOUDY    60  55  83 CALM      30.08S
MT WASHINGTON  FOG       45  45 100 SW24G31     N/A  VSB 1/16
$$

VTZ005-007-008-311400-
VERMONT

CITY           SKY/WX    TMP DP  RH WIND       PRES   REMARKS
ST JOHNSBURY     N/A     57  53  86 MISG      30.07S
MONTPELIER     PTSUNNY   59  56  89 N3        30.10S
BURLINGTON     PTSUNNY   67  56  67 S9        30.03F
$$

MAZ007-012-024-CTZ003-RIZ002-NYZ038-NYZ072-311400-
SOUTHERN NEW ENGLAND AND NY

CITY           SKY/WX    TMP DP  RH WIND       PRES   REMARKS
BOSTON         MOSUNNY   70  62  76 SE7       30.10S
WORCESTER      SUNNY     67  58  72 S7        30.12S
NANTUCKET      SUNNY     69  64  84 S6        30.14R
PROVIDENCE     MOSUNNY   71  63  75 S5        30.11F
HARTFORD       PTSUNNY   67  59  75 SW3       30.09S
ALBANY         CLOUDY    64  57  78 S8        30.07S
NEW YORK CITY  PTSUNNY   74  55  51 SW12      30.10R
$$

ANZ081-ANZ082-ANZ150-NHZ014-MEZ023>029-311400-
COASTAL MARINE OBSERVATIONS

STATION/POSITION TIME  TEMP    WIND        PRES    WAVE
                       AIR SEA DIR/SP/G            HT/PER
                 (UTC) (F)     (DEG/KT/KT) (MB)    (FT/S)
MOUNT DESERT ROC 1300   56                 1019.9R
MATINICUS ROCK   1200           90/  8/  9 1019.0R
PORTLAND WX BUOY 1300   62 63   10/  4/  4 1019.5R   3/ 8
WELLS            1300   64 58  150/  3/  4 1018.6R
ISLE OF SHOALS   1200   61     170/  6/  7 1018.7R
JEFFREYS LEDGE   1300      65                N/A     4/ 8
CASHES LEDGE BUO 1300   67 67  210/  6/  8 1019.2R   4/ 8
$$

.............KEY..............
   WCI - WIND CHILL
   TC  - TEMPERATURE IN CELSIUS
   VSB - VISIBILITY IN MILES
   HX  - HEAT INDEX
   FAIR- INDICATES FEW OR NO CLOUDS BELOW 12,000 FT, WITH NO
         SIGNIFICANT WEATHER AND/OR OBSTRUCTIONS TO VISIBILITY.






U.S. Dept. of Commerce
NOAA National Weather Service
1325 East West Highway
Silver Spring, MD 20910
E-mail: w-nws.webmaster@noaa.gov
Page last modified: May 16, 2007
NATIONAL WEATHER SERVICE: for Safety, for Work, for Fun - FOR LIFE